Date String (YYYY-MM-DD hh:mm:ss) UTC,Instrument flags,Ambient pressure (hPa),Sample flow (lpm),Bypass flow (lpm),Sample temperature (°C),Ambient temperature (°C),ASC tube jacket temperature (°C),LED temperature (°C),Box temperature (°C),Sample RH (%),Span deviation,Mass concentration (μg/m³),Mass concentration (μg/m³),Mass concentration (μg/m³)
DateTimeUTC,F1_M11,P_M11,Q1_M11,Q2_M11,T1_M11,T2_M11,T3_M11,T4_M11,T5_M11,U1_M11,ZSPAN_M11,X0_M11,X2_M11,X1_M11
2022-03-02 04:00:00,,0830.0,4.99,0.00,29.7,28.9,00.0,38.8,31.4,08.4,0000.0,0003.50,0000.66,0000.44
2022-03-02 04:01:00,,0830.0,5.00,0.00,29.7,28.9,00.0,38.8,31.4,08.4,0000.0,0003.53,0000.65,0000.43
2022-03-02 04:02:00,,0830.0,4.99,0.00,29.7,28.9,00.0,38.8,31.4,08.5,0000.0,0003.52,0000.64,0000.43
2022-03-02 04:03:00,,0830.1,5.00,0.00,29.7,28.9,00.0,38.8,31.3,08.4,0000.0,0003.58,0000.67,0000.43
2022-03-02 04:04:00,,0830.1,4.99,0.00,29.7,28.9,00.0,38.8,31.4,08.4,0000.0,0003.59,0000.69,0000.43
2022-03-02 04:05:00,,0830.1,5.01,0.00,29.7,28.9,00.0,38.8,31.4,08.4,0000.0,0003.32,0000.71,0000.43
2022-03-02 04:06:00,,0830.0,4.99,0.00,29.7,28.9,00.0,38.8,31.3,08.4,0000.0,0003.21,0000.71,0000.43
2022-03-02 04:07:00,,0830.0,4.99,0.00,29.7,28.8,00.0,38.8,31.3,08.5,0000.0,0003.79,0000.71,0000.43
2022-03-02 04:08:00,,0830.1,5.01,0.00,29.7,28.9,00.0,38.8,31.3,08.5,0000.0,0004.52,0000.69,0000.41
2022-03-02 04:09:00,,0830.1,5.00,0.00,29.7,28.8,00.0,38.8,31.3,08.5,0000.0,0004.44,0000.67,0000.40
2022-03-02 04:10:00,,0830.1,4.99,0.00,29.7,28.8,00.0,38.8,31.3,08.4,0000.0,0003.48,0000.67,0000.41
2022-03-02 04:11:00,,0830.1,5.02,0.00,29.6,28.8,00.0,38.7,31.2,08.4,0000.0,0002.72,0000.66,0000.41
2022-03-02 04:12:00,,0830.1,4.99,0.00,29.6,28.8,00.0,38.7,31.3,08.4,0000.0,0002.64,0000.65,0000.41
2022-03-02 04:13:00,,0830.1,5.01,0.00,29.6,28.8,00.0,38.7,31.3,08.3,0000.0,0002.63,0000.65,0000.40
2022-03-02 04:14:00,,0830.1,4.98,0.00,29.6,28.8,00.0,38.7,31.3,08.4,0000.0,0002.51,0000.60,0000.40
2022-03-02 04:15:00,,0830.1,5.02,0.00,29.6,28.8,00.0,38.7,31.3,08.4,0000.0,0002.44,0000.56,0000.39
2022-03-02 04:16:00,,0830.2,4.99,0.00,29.6,28.8,00.0,38.7,31.3,08.4,0000.0,0002.35,0000.52,0000.39
2022-03-02 04:17:00,,0830.1,4.99,0.00,29.6,28.8,00.0,38.7,31.3,08.3,0000.0,0002.30,0000.50,0000.38
2022-03-02 04:18:00,,0830.1,5.01,0.00,29.6,28.8,00.0,38.7,31.2,08.4,0000.0,0001.72,0000.51,0000.38
2022-03-02 04:19:00,,0830.2,5.00,0.00,29.6,28.8,00.0,38.7,31.2,08.4,0000.0,0000.95,0000.50,0000.38
2022-03-02 04:20:00,,0830.2,4.99,0.00,29.6,28.8,00.0,38.7,31.2,08.5,0000.0,0000.92,0000.49,0000.37
2022-03-02 04:21:00,,0830.2,4.99,0.00,29.6,28.8,00.0,38.7,31.2,08.6,0000.0,0000.83,0000.48,0000.37
2022-03-02 04:22:00,,0830.2,5.02,0.00,29.6,28.8,00.0,38.7,31.2,08.5,0000.0,0000.87,0000.50,0000.38
2022-03-02 04:23:00,,0830.2,4.98,0.00,29.6,28.8,00.0,38.7,31.2,08.4,0000.0,0000.88,0000.51,0000.39
2022-03-02 04:24:00,,0830.2,4.99,0.00,29.5,28.8,00.0,38.7,31.2,08.4,0000.0,0000.86,0000.50,0000.39
2022-03-02 04:25:00,,0830.2,5.02,0.00,29.5,28.7,00.0,38.7,31.2,08.4,0000.0,0000.97,0000.51,0000.38
2022-03-02 04:26:00,,0830.2,4.99,0.00,29.5,28.7,00.0,38.7,31.2,08.4,0000.0,0000.97,0000.51,0000.38
2022-03-02 04:27:00,,0830.2,4.99,0.00,29.5,28.7,00.0,38.7,31.2,08.4,0000.0,0000.99,0000.52,0000.38
2022-03-02 04:28:00,,0830.3,5.01,0.00,29.5,28.7,00.0,38.7,31.2,08.3,0000.0,0001.06,0000.56,0000.38
2022-03-02 04:29:00,,0830.3,5.00,0.00,29.5,28.7,00.0,38.6,31.2,08.4,0000.0,0001.03,0000.55,0000.38
2022-03-02 04:30:00,,0830.2,4.99,0.00,29.5,28.7,00.0,38.6,31.2,08.4,0000.0,0000.87,0000.53,0000.38
2022-03-02 04:31:00,,0830.3,5.01,0.00,29.5,28.7,00.0,38.6,31.2,08.3,0000.0,0000.85,0000.53,0000.39
2022-03-02 04:32:00,,0830.3,4.99,0.00,29.5,28.7,00.0,38.6,31.2,08.2,0000.0,0000.84,0000.54,0000.39
2022-03-02 04:33:00,,0830.3,5.02,0.00,29.5,28.7,00.0,38.6,31.2,08.2,0000.0,0000.82,0000.53,0000.38
2022-03-02 04:34:00,,0830.3,4.99,0.00,29.5,28.8,00.0,38.6,31.2,08.2,0000.0,0000.84,0000.52,0000.37
2022-03-02 04:35:00,,0830.4,5.00,0.00,29.5,28.8,00.0,38.6,31.2,08.2,0000.0,0000.83,0000.51,0000.36
2022-03-02 04:36:00,,0830.3,5.00,0.00,29.5,28.8,00.0,38.6,31.2,08.2,0000.0,0000.70,0000.49,0000.36
2022-03-02 04:37:00,,0830.4,5.02,0.00,29.5,28.8,00.0,38.6,31.2,08.1,0000.0,0000.75,0000.48,0000.35
2022-03-02 04:38:00,,0830.4,5.00,0.00,29.5,28.8,00.0,38.6,31.2,08.1,0000.0,0000.80,0000.47,0000.34
2022-03-02 04:39:00,,0830.4,4.99,0.00,29.5,28.8,00.0,38.6,31.3,08.2,0000.0,0000.73,0000.42,0000.34
2022-03-02 04:40:00,,0830.3,5.01,0.00,29.5,28.7,00.0,38.6,31.3,08.4,0000.0,0000.92,0000.42,0000.34
2022-03-02 04:41:00,,0830.4,4.99,0.00,29.5,28.7,00.0,38.6,31.2,08.6,0000.0,0000.93,0000.43,0000.34
2022-03-02 04:42:00,,0830.4,5.00,0.00,29.5,28.7,00.0,38.6,31.2,08.3,0000.0,0000.93,0000.43,0000.33
2022-03-02 04:43:00,,0830.4,5.00,0.00,29.5,28.7,00.0,38.6,31.2,08.3,0000.0,0000.92,0000.42,0000.33
2022-03-02 04:44:00,,0830.4,4.99,0.00,29.5,28.6,00.0,38.6,31.2,08.3,0000.0,0000.96,0000.42,0000.33
2022-03-02 04:45:00,,0830.3,5.00,0.00,29.4,28.6,00.0,38.6,31.1,08.3,0000.0,0000.92,0000.41,0000.33
2022-03-02 04:46:00,,0830.4,5.01,0.00,29.4,28.6,00.0,38.6,31.1,08.3,0000.0,0001.18,0000.43,0000.33
2022-03-02 04:47:00,,0830.4,4.99,0.00,29.4,28.6,00.0,38.5,31.1,08.3,0000.0,0001.22,0000.45,0000.34
2022-03-02 04:48:00,,0830.3,5.01,0.00,29.4,28.6,00.0,38.5,31.1,08.3,0000.0,0001.22,0000.46,0000.35
2022-03-02 04:49:00,,0830.4,4.99,0.00,29.4,28.6,00.0,38.5,31.1,08.3,0000.0,0001.15,0000.47,0000.36
2022-03-02 04:50:00,,0830.4,5.01,0.00,29.4,28.6,00.0,38.5,31.1,08.3,0000.0,0001.16,0000.47,0000.36
2022-03-02 04:51:00,,0830.3,5.00,0.00,29.4,28.5,00.0,38.5,31.1,08.4,0000.0,0000.92,0000.46,0000.36
2022-03-02 04:52:00,,0830.3,4.99,0.00,29.3,28.5,00.0,38.5,31.1,08.3,0000.0,0000.91,0000.45,0000.36
2022-03-02 04:53:00,,0830.3,5.01,0.00,29.3,28.5,00.0,38.5,31.0,08.3,0000.0,0000.99,0000.45,0000.36
2022-03-02 04:54:00,,0830.4,5.00,0.00,29.3,28.5,00.0,38.5,31.0,08.4,0000.0,0000.96,0000.44,0000.36
2022-03-02 04:55:00,,0830.4,4.99,0.00,29.3,28.5,00.0,38.4,31.0,08.4,0000.0,0000.95,0000.44,0000.36
2022-03-02 04:56:00,,0830.4,5.01,0.00,29.3,28.5,00.0,38.4,31.0,08.6,0000.0,0000.98,0000.46,0000.36
2022-03-02 04:57:00,,0830.4,5.00,0.00,29.3,28.5,00.0,38.4,31.0,08.6,0000.0,0000.80,0000.47,0000.36
2022-03-02 04:58:00,,0830.4,5.00,0.00,29.3,28.5,00.0,38.4,31.0,08.6,0000.0,0000.78,0000.46,0000.36
2022-03-02 04:59:00,,0830.4,5.02,0.00,29.3,28.5,00.0,38.4,31.0,08.7,0000.0,0000.85,0000.48,0000.36
